Terminal Aerodrome Forecast
Issued by NWS Cleveland, OH

Home | Current Version | Previous Version | Text Only | Print | Product List | Glossary On
Versions: 1 2 3 4 5 6 7 8 9 10 11 12 13 14 15 16 17 18 19 20 21 22 23 24 25 26
457
FTUS41 KCLE 111605 AAB
TAFTOL
TAF AMD
KTOL 111605Z 1116/1212 17005KT P6SM -SN SCT025 OVC035
      TEMPO 1116/1117 3SM -SN BKN025
     FM111800 18008KT P6SM BKN060
     FM112100 16006KT P6SM VCSH BKN035
      TEMPO 1121/1123 3SM -SHSN BKN025
     FM120200 VRB06KT 4SM -SN OVC025
     FM120500 29010KT 2SM -SN OVC015
     FM120900 30018G28KT 6SM -SHSN OVC025=

USA.gov is the U.S. government's official web portal to all federal, state and local government web resources and services.